Home   Weather   Kinshasa   Past weeks

Flag for Congo Dem. Rep. Past Weather in Kinshasa, Congo Dem. Rep. — Yesterday and Last 2 Weeks

Now
79 °F

Clear.


Feels Like: 81 °F
Forecast: 72 / 89 °F
Wind: 6 mph from Northwest

Location: Brazzaville / Maya-Maya

Current Time: Sep 27, 2016 at 11:28:33 PM

Latest Report: Sep 27, 2016 at 11:00 PM


Visibility: 5 mi

Pressure: 29.98 "Hg

Humidity: 74%

Dew Point: 70 °F

Location of KinshasaLocation

Past Weather in Kinshasa — Graph

°F

Kinshasa Temperature Yesterday

Maximum temperature yesterday: 84 °F (at 2:00 PM)
Minimum temperature yesterday: 73 °F (at 6:00 AM)
Average temperature yesterday: 79 °F

High & Low Weather Summary for the Past Weeks

 TemperatureHumidityPressure
High93 °F (Sep 17, 2:00 PM)94% (Sep 19, 3:00 AM)30.04 "Hg (Sep 19, 3:00 AM)
Low70 °F (Sep 14, 5:00 AM)41% (Sep 17, 2:00 PM)29.80 "Hg (Sep 25, 3:00 PM)
Average79 °F71%29.94 "Hg
* Reported Sep 12 10:00 PM — Sep 27 10:00 PM, Kinshasa, Weather by CustomWeather, © 2016

Note: Actual official high and low records may vary slightly from our data, if they occured in-between our weather recording intervals... More about our weather records

Advertising

Kinshasa Weather History for the Previous 24 Hours

Scroll right to see more
 ConditionsComfort  
Time TempWeatherWind HumidityBarometerVisibility
10:00 PM
Tue, Sep 27
79 °FClear.No wind74%29.95 "Hg5 mi
9:00 PM79 °FClear.No wind74%29.95 "Hg5 mi
8:00 PM81 °FClear.No wind70%29.92 "Hg6 mi
7:00 PM82 °FClear.No wind66%29.89 "Hg6 mi
6:00 PM82 °FClear.6 mph66%29.86 "Hg6 mi
5:00 PM86 °FSunny.No wind55%29.86 "Hg10 mi
4:00 PM86 °FPassing clouds.3 mph55%29.86 "HgN/A
3:00 PM86 °FPassing clouds.3 mph59%29.86 "HgN/A
2:00 PM86 °FPartly sunny.2 mph55%29.89 "HgN/A
1:00 PM82 °FPartly sunny.5 mph62%29.92 "HgN/A
12:00 PM81 °FMore clouds than sun.9 mph66%29.98 "HgN/A
11:00 AM79 °FBroken clouds.7 mph70%30.01 "HgN/A
10:00 AM77 °FBroken clouds.7 mph74%30.01 "HgN/A
9:00 AM75 °FBroken clouds.6 mph83%30.01 "Hg5 mi
8:00 AM75 °FMore clouds than sun.5 mph83%30.01 "Hg5 mi
7:00 AM73 °FBroken clouds.3 mph83%29.98 "Hg5 mi
6:00 AM73 °FPartly sunny.6 mph83%29.95 "Hg5 mi
5:00 AM73 °FPassing clouds.3 mph83%29.95 "Hg5 mi
4:00 AM73 °FPassing clouds.3 mph83%29.92 "Hg5 mi
3:00 AM75 °FPassing clouds.3 mph78%29.92 "Hg5 mi
2:00 AM75 °FPassing clouds.3 mph78%29.92 "Hg5 mi
1:00 AM75 °FPassing clouds.2 mph78%29.92 "Hg5 mi
12:00 AM75 °FPassing clouds.5 mph78%29.92 "Hg5 mi
11:00 PM
Mon, Sep 26
77 °FPassing clouds.2 mph74%29.95 "Hg5 mi
Weather by CustomWeather, © 2016

See weather overviewHow to use our weather pages